User: anonymous   Login
Location: Dappach
(48.9767°N, 9.6998°E)
Time: 20:52:18
(UTC+00:00)
Language:

Meteor 1-4 Rocket - Orbit

View from above orbital plane
View from above orbital plane
View from above satellite
View from above satellite

Ground track
Ground track

The orbit data is extracted from the following two-line orbital elements,

1 04394U 70037B   24206.53700928  .00076766  00000-0  60124-3 0  9993
2 04394  81.2263 177.9115 0018610 167.4087 192.7641 15.71073839963095
Epoch (UTC): 24 July 2024 12:53:17
Eccentricity: 0.0018610
inclination: 81.2263°
perigee height: 343 km
apogee height: 368 km
right ascension of ascending node: 177.9115°
argument of perigee: 167.4087°
revolutions per day: 15.71073839
mean anomaly at epoch: 192.7641°
orbit number at epoch: 96309

The dashed part of the orbit path shows where the satellite is in the earth's shadow,  

DLR